Weather History for Sexton Summit, OR

Change the Weather History Date:

Wednesday, February 20, 2013

  Actual Average Record
Temperature  
Mean Temperature 30 °F -  
Max Temperature 33 °F 40 °F 41 °F (2014)
Min Temperature 26 °F 30 °F 30 °F (2014)
Degree Days  
Heating Degree Days 36    
Moisture  
Dew Point 27 °F    
Average Humidity 94    
Maximum Humidity 100    
Minimum Humidity 78    
Precipitation  
Precipitation 0.08 in - - ()
Sea Level Pressure  
Sea Level Pressure 30.01 in    
Wind  
Wind Speed 2 mph (NW)    
Max Wind Speed 7 mph    
Max Gust Speed -    
Visibility 3 miles    
Events Fog , Snow    
Averages and records for this station are not official NWS values.
T = Trace of Precipitation, MM = Missing Value Source: NWS Daily Summary

Daily Weather History Graph

Daily Weather History Graph

Search for Another Location

Airport:

Trip Planner

Search our weather history database for the weather conditions in past years. The results will help you decide how hot, cold, wet, or windy it might be!

Date:

Astronomy

Feb. 20, 2013 Rise Set
Actual Time 7:02 AM PST 5:52 PM PST
Civil Twilight 6:33 AM PST 6:20 PM PST
Nautical Twilight 6:01 AM PST 6:53 PM PST
Astronomical Twilight 5:28 AM PST 7:26 PM PST
Moon 1:14 PM PST (2/20) 3:31 AM PST (2/20)
Length of Visible Light 11h 47m
Length of Day
10h 49m
Waxing Gibbous, 77% of the Moon is Illuminated
Feb 20
Waxing Gibbous
Feb 25
Full
Mar 4
Last Quarter
Mar 11
New
Mar 19
First Quarter

Hourly Weather History & Observations

Time (PST) Temp. Windchill Dew Point Humidity Pressure Visibility Wind Dir Wind Speed Gust Speed Precip Events Conditions
12:27 AM 28.4 °F - 26.6 °F 93% 29.89 in 0.8 mi Calm Calm - N/A   Mist
12:54 AM 28.4 °F - 26.6 °F 93% 29.90 in 0.2 mi Calm Calm - N/A Fog Light Freezing Fog
12:56 AM 28.9 °F - 28.0 °F 96% 29.99 in 0.2 mi Calm Calm - N/A Fog Light Freezing Fog
1:19 AM 28.4 °F - 26.6 °F 93% 29.92 in 0.5 mi Calm Calm - N/A Fog Light Freezing Fog
1:48 AM 28.4 °F - 26.6 °F 93% 29.92 in 1.0 mi Calm Calm - N/A   Mist
1:56 AM 28.9 °F - 27.0 °F 92% 30.01 in 1.0 mi Calm Calm - N/A   Mist
2:03 AM 28.4 °F 24.6 °F 26.6 °F 93% 29.92 in 0.8 mi Variable 3.5 mph - N/A   Mist
2:36 AM 28.4 °F - 26.6 °F 93% 29.93 in 1.2 mi Calm Calm - N/A   Overcast
2:48 AM 28.4 °F 24.6 °F 26.6 °F 93% 29.93 in 0.8 mi Variable 3.5 mph - N/A   Mist
2:56 AM 28.0 °F - 27.0 °F 96% 30.02 in 0.8 mi Calm Calm - N/A   Mist
3:04 AM 28.4 °F 24.6 °F 26.6 °F 93% 29.93 in 1.0 mi Variable 3.5 mph - N/A   Mist
3:24 AM 28.4 °F - 26.6 °F 93% 29.94 in 0.5 mi Calm Calm - N/A Fog Light Freezing Fog
3:56 AM 28.0 °F - 27.0 °F 96% 30.03 in 0.5 mi Calm Calm - N/A Fog Light Freezing Fog
4:33 AM 28.4 °F - 26.6 °F 93% 29.95 in 1.2 mi Calm Calm - N/A   Overcast
4:56 AM 28.0 °F - 26.1 °F 92% 30.04 in 0.8 mi Calm Calm - N/A   Mist
5:16 AM 28.4 °F - 26.6 °F 93% 29.95 in 1.0 mi Calm Calm - N/A   Mist
5:27 AM 28.4 °F - 26.6 °F 93% 29.96 in 2.0 mi Calm Calm - N/A   Overcast
5:38 AM 26.6 °F - 26.6 °F 100% 29.96 in 1.2 mi Calm Calm - N/A   Overcast
5:47 AM 26.6 °F - 26.6 °F 100% 29.96 in 0.5 mi Calm Calm - N/A Fog Light Freezing Fog
5:56 AM 27.0 °F - 26.1 °F 96% 30.06 in 1.0 mi Calm Calm - N/A   Mist
6:05 AM 26.6 °F - 26.6 °F 100% 29.96 in 2.0 mi Calm Calm - N/A   Overcast
6:12 AM 26.6 °F - 26.6 °F 100% 29.97 in 1.5 mi Calm Calm - N/A   Overcast
6:26 AM 26.6 °F 21.2 °F 26.6 °F 100% 29.97 in 1.0 mi NNW 4.6 mph - N/A   Mist
6:37 AM 26.6 °F - 26.6 °F 100% 29.97 in 2.0 mi Calm Calm - N/A   Overcast
6:52 AM 26.6 °F - 24.8 °F 93% 29.97 in 1.5 mi Calm Calm - N/A   Overcast
6:56 AM 27.0 °F 21.6 °F 25.0 °F 92% 30.08 in 1.8 mi North 4.6 mph - N/A   Overcast
7:08 AM 26.6 °F 22.6 °F 24.8 °F 93% 29.98 in 3.0 mi NNW 3.5 mph - N/A   Overcast
7:32 AM 26.6 °F 22.6 °F 24.8 °F 93% 29.99 in 6.0 mi NNW 3.5 mph - N/A   Overcast
7:54 AM 26.6 °F 22.6 °F 24.8 °F 93% 30.00 in 1.8 mi NNW 3.5 mph - N/A   Overcast
7:56 AM 27.0 °F 23.0 °F 25.0 °F 92% 30.11 in 1.5 mi NNW 3.5 mph - N/A   Overcast
8:03 AM 26.6 °F 21.2 °F 26.6 °F 100% 30.01 in 2.0 mi NNW 4.6 mph - N/A   Overcast
8:07 AM 26.6 °F 21.2 °F 26.6 °F 100% 30.01 in 1.0 mi NNW 4.6 mph - N/A   Overcast
8:14 AM 26.6 °F 22.6 °F 26.6 °F 100% 30.01 in 0.5 mi NNW 3.5 mph - N/A Fog Light Freezing Fog
8:22 AM 26.6 °F - 24.8 °F 93% 30.01 in 0.2 mi Calm Calm - N/A Fog Light Freezing Fog
8:35 AM 26.6 °F - 26.6 °F 100% 30.01 in 1.0 mi Calm Calm - N/A   Overcast
8:40 AM 26.6 °F - 26.6 °F 100% 30.01 in 2.0 mi Calm Calm - N/A   Overcast
8:44 AM 28.4 °F - 26.6 °F 93% 30.01 in 6.0 mi Calm Calm - 0.01 in   Overcast
8:56 AM 28.0 °F - 26.1 °F 92% 30.10 in 10.0 mi Calm Calm - 0.01 in   Overcast
9:46 AM 28.4 °F - 26.6 °F 93% 30.01 in 5.0 mi Calm Calm - N/A   Overcast
9:48 AM 28.4 °F - 26.6 °F 93% 30.01 in 1.5 mi Calm Calm - N/A   Overcast
9:56 AM 28.0 °F - 27.0 °F 96% 30.11 in 1.2 mi Calm Calm - N/A   Overcast
9:58 AM 28.4 °F - 26.6 °F 93% 30.01 in 4.0 mi Calm Calm - N/A   Overcast
10:56 AM 28.9 °F - 27.0 °F 92% 30.12 in 3.0 mi Calm Calm - N/A   Overcast
11:19 AM 28.4 °F - 28.4 °F 100% 30.03 in 10.0 mi Calm Calm - N/A   Overcast
11:56 AM 30.0 °F 26.5 °F 28.0 °F 92% 30.12 in 10.0 mi WNW 3.5 mph - N/A   Overcast
12:39 PM 30.2 °F - 28.4 °F 93% 30.02 in 10.0 mi Calm Calm - N/A   Overcast
12:56 PM 30.9 °F - 28.0 °F 89% 30.10 in 10.0 mi Calm Calm - N/A   Overcast
1:19 PM 30.2 °F - 28.4 °F 93% 30.01 in 10.0 mi Calm Calm - N/A   Overcast
1:56 PM 32.0 °F - 28.0 °F 85% 30.08 in 10.0 mi Calm Calm - N/A   Overcast
2:41 PM 32.0 °F 27.5 °F 26.6 °F 80% 29.99 in 10.0 mi SW 4.6 mph - N/A   Overcast
2:56 PM 33.1 °F 30.0 °F 27.0 °F 78% 30.07 in 10.0 mi WSW 3.5 mph - N/A   Overcast
3:56 PM 32.0 °F 27.5 °F 28.0 °F 85% 30.08 in 10.0 mi WNW 4.6 mph - N/A   Overcast
4:05 PM 32.0 °F 28.7 °F 28.4 °F 87% 29.99 in 10.0 mi NW 3.5 mph - N/A   Overcast
4:21 PM 32.0 °F 27.5 °F 30.2 °F 93% 29.99 in 10.0 mi NW 4.6 mph - 0.00 in   Overcast
4:41 PM 30.2 °F 24.3 °F 28.4 °F 93% 29.99 in 10.0 mi NNW 5.8 mph - 0.00 in   Overcast
4:56 PM 30.9 °F 25.2 °F 28.9 °F 92% 30.07 in 10.0 mi NW 5.8 mph - 0.00 in   Overcast
5:03 PM 30.2 °F 24.3 °F 28.4 °F 93% 29.98 in 10.0 mi NW 5.8 mph - 0.00 in   Overcast
5:56 PM 30.9 °F 24.3 °F 28.0 °F 89% 30.07 in 7.0 mi NW 6.9 mph - 0.00 in Snow Light Snow
6:27 PM 30.2 °F 26.7 °F 28.4 °F 93% 29.98 in 4.0 mi Variable 3.5 mph - 0.00 in Snow Light Snow
6:36 PM 30.2 °F - 28.4 °F 93% 29.98 in 2.5 mi Calm Calm - 0.00 in Snow Light Snow
6:42 PM 30.2 °F 26.7 °F 28.4 °F 93% 29.98 in 1.8 mi Variable 3.5 mph - 0.00 in Snow Light Snow
6:56 PM 30.0 °F 25.2 °F 28.9 °F 96% 30.07 in 1.5 mi WNW 4.6 mph - 0.00 in Snow Light Snow
7:05 PM 30.2 °F 25.4 °F 28.4 °F 93% 29.98 in 0.8 mi Variable 4.6 mph - 0.00 in Snow Light Snow
7:13 PM 30.2 °F 26.7 °F 28.4 °F 93% 29.99 in 0.5 mi Variable 3.5 mph - 0.01 in Fog , Snow Snow
7:24 PM 30.2 °F 26.7 °F 28.4 °F 93% 29.99 in 0.5 mi Variable 3.5 mph - 0.02 in Fog , Snow Light Snow
7:40 PM 30.2 °F 25.4 °F 28.4 °F 93% 29.99 in 1.0 mi Variable 4.6 mph - 0.03 in Snow Light Snow
7:44 PM 28.4 °F 22.2 °F 28.4 °F 100% 29.99 in 2.5 mi Variable 5.8 mph - 0.03 in   Overcast
7:51 PM 28.4 °F 22.2 °F 26.6 °F 93% 29.98 in 7.0 mi Variable 5.8 mph - 0.03 in   Overcast
7:56 PM 28.9 °F 23.9 °F 28.0 °F 96% 30.09 in 7.0 mi Variable 4.6 mph - 0.03 in   Overcast
8:08 PM 28.4 °F 23.3 °F 28.4 °F 100% 29.99 in 5.0 mi Variable 4.6 mph - 0.00 in   Overcast
8:13 PM 28.4 °F 24.6 °F 28.4 °F 100% 29.99 in 1.8 mi Variable 3.5 mph - 0.00 in   Overcast
8:17 PM 30.2 °F 25.4 °F 28.4 °F 93% 29.99 in 0.8 mi WNW 4.6 mph - 0.00 in   Overcast
8:28 PM 30.2 °F 26.7 °F 28.4 °F 93% 30.00 in 0.5 mi NW 3.5 mph - 0.00 in Fog Light Freezing Fog
8:45 PM 28.4 °F 24.6 °F 28.4 °F 100% 29.99 in 1.0 mi Variable 3.5 mph - 0.00 in Snow Light Snow
8:49 PM 28.4 °F 24.6 °F 28.4 °F 100% 30.00 in 0.8 mi Variable 3.5 mph - 0.00 in Snow Light Snow
8:56 PM 30.0 °F - 28.9 °F 96% 30.09 in 0.5 mi Calm Calm - 0.00 in Fog , Snow Light Snow
9:30 PM 30.2 °F 25.4 °F 28.4 °F 93% 30.00 in 1.0 mi Variable 4.6 mph - 0.00 in Snow Light Snow
9:37 PM 30.2 °F 25.4 °F 28.4 °F 93% 30.00 in 0.5 mi Variable 4.6 mph - 0.00 in Fog , Snow Light Snow
9:45 PM 30.2 °F - 28.4 °F 93% 30.00 in 0.2 mi Calm Calm - 0.00 in Fog , Snow Light Snow
9:56 PM 30.0 °F 26.5 °F 28.9 °F 96% 30.09 in 0.5 mi Variable 3.5 mph - 0.01 in Fog , Snow Light Snow
10:23 PM 30.2 °F - 28.4 °F 93% 30.01 in 1.0 mi Calm Calm - 0.00 in Snow Light Snow
10:30 PM 30.2 °F 26.7 °F 28.4 °F 93% 30.02 in 0.5 mi NNW 3.5 mph - 0.01 in Fog , Snow Light Snow
10:39 PM 30.2 °F - 28.4 °F 93% 30.02 in 0.2 mi Calm Calm - 0.02 in Fog , Snow Light Snow
10:46 PM 30.2 °F - 28.4 °F 93% 30.02 in 0.5 mi Calm Calm - 0.02 in Fog , Snow Light Snow
10:56 PM 30.0 °F - 28.0 °F 92% 30.11 in 0.8 mi Calm Calm - 0.02 in Snow Light Snow
11:11 PM 30.2 °F 25.4 °F 28.4 °F 93% 30.03 in 0.5 mi Variable 4.6 mph - 0.00 in Fog Light Freezing Fog
11:20 PM 28.4 °F - 28.4 °F 100% 30.03 in 0.5 mi Calm Calm - 0.00 in Fog Light Freezing Fog
11:29 PM 28.4 °F - 28.4 °F 100% 30.03 in 0.2 mi Calm Calm - 0.00 in Fog Light Freezing Fog
11:51 PM 28.4 °F 24.6 °F 28.4 °F 100% 30.03 in 0.5 mi Variable 3.5 mph - 0.00 in Fog , Snow Light Snow
11:56 PM 28.9 °F 25.2 °F 27.0 °F 92% 30.12 in 0.5 mi Variable 3.5 mph - 0.01 in Fog , Snow Snow